Home > Weather > Turin > Past weeks

Flag for Italy Past Weather in Turin, Italy — Yesterday and Last 2 Weeks

Now
79 °F

Sunny.


Feels Like: 81 °F
Forecast: 71 / 86 °F
Wind: No wind

Location: Torino / Bric Della Croce

Current Time: Jun 24, 2016 at 10:28:37 PM

Latest Report: Jun 24, 2016 at 9:55 PM


Visibility: 10 mi

Pressure: 30.04 "Hg

Humidity: 61%

Dew Point: 64 °F

Location of TurinLocation

Past Weather in Turin — Graph

°F

Turin Temperature Yesterday

Maximum temperature yesterday: 82 °F (at 3:55 PM)
Minimum temperature yesterday: 72 °F (at 2:55 AM)
Average temperature yesterday: 76 °F

High & Low Weather Summary for the Past Weeks

 TemperatureHumidityPressure
High84 °F (Jun 24, 5:55 PM)100% (Jun 9, 11:55 PM)30.27 "Hg (Jun 9, 11:55 PM)
Low54 °F (Jun 18, 1:55 AM)31% (Jun 20, 3:55 PM)29.53 "Hg (Jun 14, 7:55 PM)
Average65 °F76%29.93 "Hg
* Reported Jun 9 8:55 PM — Jun 24 8:55 PM, Turin, Weather by CustomWeather, © 2016

Note: Actual official high and low records may vary slightly from our data, if they occured in-between our weather recording intervals... More about our weather records

Advertising

Turin Weather History for the Previous 24 Hours

Scroll right to see more
 ConditionsComfort  
Time TempWeatherWind HumidityBarometerVisibility
8:55 PM
Fri, Jun 24
81 °FSunny.5 mph62%30.04 "Hg10 mi
7:55 PM82 °FSunny.7 mph62%30.04 "Hg10 mi
6:55 PM84 °FScattered clouds.5 mph58%30.04 "HgN/A
5:55 PM84 °FPassing clouds.No wind55%30.07 "HgN/A
4:55 PM82 °FPassing clouds.No wind58%30.07 "HgN/A
3:55 PM82 °FSunny.No wind58%30.09 "Hg10 mi
2:55 PM81 °FSunny.No wind70%30.09 "Hg10 mi
1:55 PM79 °FSunny.5 mph70%30.12 "Hg10 mi
12:55 PM79 °FSunny.5 mph70%30.15 "Hg10 mi
11:55 AM77 °FSunny.3 mph74%30.15 "Hg10 mi
10:55 AM75 °FSunny.No wind78%30.18 "Hg10 mi
9:55 AM75 °FSunny.No wind83%30.18 "Hg10 mi
8:55 AM75 °FSunny.No wind78%30.18 "Hg10 mi
7:55 AM73 °FSunny.No wind74%30.18 "Hg10 mi
6:55 AM73 °FSunny.2 mph74%30.18 "Hg10 mi
5:55 AM73 °FClear.5 mph78%30.18 "Hg10 mi
4:55 AM73 °FClear.No wind78%30.18 "Hg10 mi
3:55 AM73 °FClear.2 mph78%30.21 "Hg10 mi
2:55 AM73 °FClear.2 mph78%30.21 "Hg10 mi
1:55 AM75 °FClear.No wind69%30.21 "Hg10 mi
12:55 AM75 °FClear.No wind74%30.21 "Hg10 mi
11:55 PM
Thu, Jun 23
77 °FClear.2 mph61%30.21 "Hg10 mi
10:55 PM77 °FClear.9 mph61%30.21 "Hg10 mi
Weather by CustomWeather, © 2016

See weather overviewHow to use our weather pages